Regional Weather Roundup
Issued by NWS Raleigh/Durham, NC

Home | Current Version | Previous Version | Text Only | Print | Product List | Glossary On
Versions: 1 2 3 4 5 6 7 8 9 10 11 12 13 14 15 16 17 18 19 20 21 22 23 24 25 26 27 28 29 30 31 32 33 34 35 36 37 38 39 40 41 42 43 44 45 46 47 48 49 50
000
ASUS42 KRAH 251510
RWRRAH
NORTH CAROLINA WEATHER ROUNDUP
NATIONAL WEATHER SERVICE RALEIGH NC
1100 AM EDT SUN SEP 25 2016

NOTE: "FAIR" INDICATES FEW OR NO CLOUDS BELOW 12,000 FEET WITH NO
SIGNIFICANT WEATHER AND/OR OBSTRUCTIONS TO VISIBILITY.

NCZ001-053-055-056-065-067-251600-
WESTERN NORTH CAROLINA

CITY           SKY/WX    TMP DP  RH WIND       PRES   REMARKS
ASHEVILLE      SUNNY     75  58  55 S5        30.20F
JEFFERSON      CLOUDY    64  62  94 CALM      30.26R FOG
MORGANTON      CLOUDY    72  68  89 N3        30.23R
HICKORY        CLOUDY    74  68  81 NE6       30.17S
RUTHERFORDTON  MOSUNNY   77  67  69 E6        30.17S
MOUNT AIRY     CLOUDY    72  67  84 E6        30.21S
BOONE          PTSUNNY   69  63  80 SE3       30.25S
$$

NCZ021-022-025-041-071-084-088-251600-
CENTRAL NORTH CAROLINA

CITY           SKY/WX    TMP DP  RH WIND       PRES   REMARKS
CHARLOTTE      MOSUNNY   80  67  64 CALM      30.14S
GREENSBORO     CLOUDY    70  69  97 NE8       30.17S FOG
WINSTON-SALEM  CLOUDY    70  65  84 NE5       30.19R HAZE
RALEIGH-DURHAM CLOUDY    72  66  81 E8        30.17R
FORT BRAGG     MOSUNNY   75  70  83 NE7       30.14R
FAYETTEVILLE   CLOUDY    77  70  79 E8        30.13S
BURLINGTON     CLOUDY    69  69 100 E6        30.17S FOG
LAURINBURG     CLOUDY    73  71  93 E8        30.14S FOG
$$

NCZ011-015-027-028-043-044-047-080-103-251600-
NORTHEASTERN NORTH CAROLINA

CITY           SKY/WX    TMP DP  RH WIND       PRES   REMARKS
ROCKY MT-WILSO CLOUDY    71  68  90 NE5       30.17S
GREENVILLE     CLOUDY    72  68  88 E7        30.18R
WASHINGTON     PTSUNNY   71  67  87 E8        30.16S
ELIZABETH CITY PTSUNNY   72  57  59 NE12      30.17S
MANTEO         SUNNY     73  58  58 NE12      30.16R
CAPE HATTERAS  CLOUDY    74  62  66 VRB7G21   30.14R
$$

NCZ078-087-090-091-093-098-101-251600-
SOUTHEASTERN NORTH CAROLINA

CITY           SKY/WX    TMP DP  RH WIND       PRES   REMARKS
LUMBERTON      PTSUNNY   77  71  82 E6        30.13R
GOLDSBORO      PTSUNNY   73  72  94 NE12      30.14S
KINSTON        PTSUNNY   72  68  88 NE7       30.16S
KENANSVILLE    CLOUDY    75  68  78 E7        30.15S
NEW BERN       CLOUDY    73  67  81 NE12      30.16R
CHERRY POINT   CLOUDY    75  68  78 NE10      30.15R
BEAUFORT       CLOUDY    79  71  76 N14       30.13R
JACKSONVILLE   PTSUNNY   78  68  71 NE8       30.13R
WILMINGTON     SUNNY     81  71  71 NE9       30.12S
$$




USA.gov is the U.S. government's official web portal to all federal, state and local government web resources and services.